Home   Weather   Nagaur   Past weeks

Flag for India Past Weather in Nagaur, Rajasthan, India — Yesterday and Last 2 Weeks

Now
55 °F

Haze.


Feels Like: 55 °F
Forecast: 45 / 70 °F
Wind: No wind

Location: Jaipur / Sanganer

Current Time: Jan 18, 2017 at 9:52:02 am

Latest Report: Jan 18, 2017 at 9:00 am


Visibility: 2 mi

Pressure: 30.21 "Hg

Humidity: 67%

Dew Point: 45 °F

Location of NagaurLocation

Past Weather in Nagaur — Graph

°F

Nagaur Temperature Yesterday

Maximum temperature yesterday: 66 °F (at 3:00 pm)
Minimum temperature yesterday: 43 °F (at 4:30 am)
Average temperature yesterday: 55 °F

High & Low Weather Summary for the Past Weeks

 TemperatureHumidityPressure
High77 °F (Jan 5, 2:00 pm)100% (Jan 3, 8:30 am)30.18 "Hg (Jan 3, 8:30 am)
Low39 °F (Jan 12, 5:30 am)15% (Jan 13, 5:00 pm)27.00 "Hg (Jan 6, 7:30 pm)
Average59 °F57%30.02 "Hg
* Reported Jan 3 8:30 am — Jan 18 8:30 am, Nagaur, Weather by CustomWeather, © 2017

Note: Actual official high and low records may vary slightly from our data, if they occured in-between our weather recording intervals... More about our weather records

Advertising

Nagaur Weather History for the Previous 24 Hours

Scroll right to see more
 ConditionsComfort  
Time TempWeatherWind HumidityBarometerVisibility
8:30 am
Wed, Jan 18
54 °FHaze.No wind77%30.18 "Hg2 mi
8:00 am48 °FHaze.No wind82%30.18 "Hg2 mi
7:30 am48 °FHaze.No wind87%30.15 "Hg2 mi
7:00 am46 °FHaze.No wind93%30.15 "Hg2 mi
6:30 am48 °FHaze.No wind94%30.15 "Hg2 mi
6:00 am46 °FHaze.No wind93%30.12 "Hg2 mi
5:30 am46 °FHaze.No wind87%30.12 "Hg2 mi
5:00 am46 °FHaze.No wind93%30.09 "Hg2 mi
4:30 am46 °FHaze.No wind87%30.09 "Hg2 mi
4:00 am50 °FHaze.No wind82%30.09 "Hg2 mi
3:30 am48 °FHaze.No wind82%30.09 "Hg2 mi
3:00 am50 °FHaze.1 mph76%30.09 "Hg2 mi
2:30 am52 °FHaze.8 mph72%30.09 "Hg2 mi
1:30 am52 °FHaze.No wind67%30.09 "Hg2 mi
1:00 am52 °FHaze.No wind67%30.12 "Hg2 mi
12:30 am52 °FHaze.No wind67%30.12 "Hg2 mi
12:00 am50 °FHaze.No wind67%30.12 "Hg2 mi
11:30 pm
Tue, Jan 17
54 °FHaze.No wind63%30.12 "Hg2 mi
11:00 pm54 °FHaze.No wind58%30.12 "Hg2 mi
10:30 pm55 °FHaze.No wind51%30.12 "Hg2 mi
10:00 pm55 °FHaze.8 mph51%30.12 "Hg2 mi
9:30 pm55 °FHaze.3 mph51%30.12 "Hg2 mi
9:00 pm57 °FHaze.No wind44%30.09 "Hg2 mi
8:00 pm59 °FHaze.No wind45%30.09 "Hg2 mi
7:30 pm57 °FHaze.No wind44%30.07 "Hg2 mi
7:00 pm59 °FHaze.2 mph39%30.07 "Hg2 mi
6:30 pm61 °FHaze.2 mph36%30.07 "Hg2 mi
6:00 pm63 °FHaze.2 mph32%30.07 "Hg3 mi
5:30 pm64 °FHaze.3 mph30%30.04 "Hg3 mi
5:00 pm64 °FHaze.6 mph30%30.04 "Hg3 mi
4:30 pm66 °FHaze.3 mph26%30.04 "Hg3 mi
4:00 pm66 °FHaze.6 mph24%30.04 "Hg3 mi
3:30 pm66 °FHaze.6 mph22%30.04 "Hg3 mi
3:00 pm66 °FHaze.5 mph28%30.04 "Hg3 mi
2:30 pm64 °FHaze.5 mph30%30.04 "Hg3 mi
2:00 pm64 °FHaze.8 mph30%30.04 "Hg3 mi
1:30 pm64 °FHaze.5 mph32%30.07 "Hg3 mi
1:00 pm61 °FHaze.6 mph39%30.09 "Hg3 mi
12:30 pm61 °FHaze.6 mph39%30.09 "Hg3 mi
12:00 pm61 °FHaze.7 mph39%30.12 "Hg2 mi
11:30 am59 °FHaze.5 mph48%30.12 "Hg2 mi
11:00 am57 °FHaze.5 mph55%30.15 "Hg2 mi
10:30 am57 °FClear.No wind59%30.15 "Hg1 mi
10:00 am55 °FPassing clouds.No wind63%30.15 "Hg1 mi
9:30 am52 °FClear.1 mph72%30.15 "Hg1 mi
9:00 am52 °FClear.No wind77%30.12 "Hg1 mi
Weather by CustomWeather, © 2017

See weather overviewHow to use our weather pages